• In France
  • List of Countries
  • For 7 days
  • Water Temperature
  • Satellite Maps
  • Weather Map
  • Weather Widgets
  • user-avatar
    Login

    Hourly Weather Reykjavík

    Today, 20 August, Monday

    Time Temperature Precipitation Wind Pressure Humidity
    00:00 +9°C° 0.2 mm 3 mps 760 mmHg 94%
    01:00 +9°C° 0.2 mm 3 mps 759 mmHg 93%
    02:00 +9°C° 0.2 mm 3 mps 759 mmHg 93%
    03:00 +9°C° 0.3 mm 3 mps 759 mmHg 94%
    04:00 +8°C° 0.3 mm 4 mps 759 mmHg 95%
    05:00 +8°C° 0 mm 4 mps 759 mmHg 95%
    06:00 +8°C° 0.4 mm 4 mps 759 mmHg 95%
    07:00 +8°C° 0.4 mm 5 mps 759 mmHg 94%
    08:00 +9°C° 0.4 mm 5 mps 759 mmHg 94%
    09:00 +9°C° 0.3 mm 5 mps 758 mmHg 93%
    10:00 +9°C° 0.3 mm 6 mps 758 mmHg 93%
    11:00 +9°C° 0.3 mm 6 mps 758 mmHg 92%
    12:00 +9°C° 0.4 mm 6 mps 758 mmHg 92%
    13:00 +9°C° 0.4 mm 6 mps 758 mmHg 92%
    14:00 +9°C° 0.4 mm 6 mps 758 mmHg 92%
    15:00 +9°C° 0.4 mm 6 mps 757 mmHg 93%
    16:00 +9°C° 0.4 mm 5 mps 757 mmHg 94%
    17:00 +9°C° 0.4 mm 5 mps 757 mmHg 94%
    18:00 +9°C° 0.7 mm 5 mps 757 mmHg 95%
    19:00 +8°C° 0.7 mm 5 mps 757 mmHg 96%
    20:00 +8°C° 0.7 mm 5 mps 757 mmHg 96%
    21:00 +8°C° 0.9 mm 4 mps 757 mmHg 96%
    22:00 +8°C° 0.9 mm 4 mps 756 mmHg 96%
    23:00 +9°C° 0.9 mm 3 mps 756 mmHg 97%

    Tomorrow, 21 August, Tuesday

    Time Temperature Precipitation Wind Pressure Humidity
    00:00 +9°C° 0.9 mm 3 mps 756 mmHg 97%
    01:00 +9°C° 0.9 mm 3 mps 756 mmHg 97%
    02:00 +9°C° 0.9 mm 3 mps 755 mmHg 97%
    03:00 +9°C° 0.8 mm 2 mps 755 mmHg 97%
    04:00 +9°C° 0.8 mm 2 mps 755 mmHg 97%
    05:00 +9°C° 0.8 mm 2 mps 755 mmHg 97%
    06:00 +9°C° 0.4 mm 2 mps 754 mmHg 95%
    07:00 +9°C° 0.4 mm 2 mps 754 mmHg 94%
    08:00 +9°C° 0.4 mm 2 mps 754 mmHg 93%
    09:00 +11°C° 0.2 mm 1 mps 754 mmHg 90%
    10:00 +11°C° 0.2 mm 1 mps 753 mmHg 87%
    11:00 +11°C° 0.2 mm 1 mps 753 mmHg 84%
    12:00 +12°C° 0.2 mm 1 mps 753 mmHg 81%
    13:00 +12°C° 0.2 mm 2 mps 753 mmHg 77%
    14:00 +13°C° 0.2 mm 2 mps 752 mmHg 74%
    15:00 +13°C° 0.1 mm 2 mps 752 mmHg 75%
    16:00 +13°C° 0.1 mm 2 mps 752 mmHg 75%
    17:00 +12°C° 0.1 mm 3 mps 752 mmHg 76%
    18:00 +11°C° 0 mm 3 mps 751 mmHg 80%
    19:00 +10°C° 0 mm 2 mps 751 mmHg 84%
    20:00 +9°C° 0 mm 2 mps 751 mmHg 88%
    21:00 +9°C° 0 mm 2 mps 751 mmHg 90%
    22:00 +8°C° 0 mm 2 mps 751 mmHg 92%
    23:00 +8°C° 0 mm 2 mps 751 mmHg 94%

    Day after tomorrow, 22 August, Wednesday

    Time Temperature Precipitation Wind Pressure Humidity
    00:00 +7°C° 0 mm 2 mps 750 mmHg 94%
    01:00 +7°C° 0 mm 2 mps 750 mmHg 94%
    02:00 +7°C° 0 mm 2 mps 750 mmHg 95%
    03:00 +7°C° 0 mm 2 mps 750 mmHg 95%
    04:00 +7°C° 0 mm 2 mps 749 mmHg 95%
    05:00 +7°C° 0 mm 2 mps 749 mmHg 95%
    06:00 +8°C° 0 mm 2 mps 749 mmHg 91%
    07:00 +9°C° 0 mm 2 mps 749 mmHg 87%
    08:00 +10°C° 0 mm 3 mps 748 mmHg 83%
    09:00 +11°C° 0 mm 3 mps 748 mmHg 80%
    10:00 +11°C° 0 mm 3 mps 748 mmHg 76%
    11:00 +12°C° 0 mm 3 mps 748 mmHg 72%
    12:00 +12°C° 0.1 mm 4 mps 748 mmHg 71%
    13:00 +13°C° 0.1 mm 4 mps 748 mmHg 70%
    14:00 +13°C° 0.1 mm 4 mps 748 mmHg 68%
    15:00 +13°C° 0.1 mm 5 mps 748 mmHg 68%
    16:00 +13°C° 0.1 mm 5 mps 748 mmHg 68%
    17:00 +12°C° 0.1 mm 5 mps 748 mmHg 68%
    18:00 +12°C° 0 mm 5 mps 748 mmHg 72%
    19:00 +10°C° 0 mm 5 mps 749 mmHg 77%
    20:00 +9°C° 0 mm 5 mps 749 mmHg 81%
    21:00 +8°C° 0 mm 4 mps 749 mmHg 84%
    22:00 +7°C° 0 mm 4 mps 750 mmHg 87%
    23:00 +7°C° 0 mm 4 mps 750 mmHg 89%

    23 August, Thursday

    Time Temperature Precipitation Wind Pressure Humidity
    00:00 +6°C° 0 mm 4 mps 750 mmHg 90%
    01:00 +6°C° 0 mm 4 mps 750 mmHg 91%
    02:00 +6°C° 0 mm 4 mps 751 mmHg 92%
    03:00 +6°C° 0 mm 4 mps 751 mmHg 92%
    04:00 +6°C° 0 mm 4 mps 751 mmHg 93%
    05:00 +6°C° 0 mm 4 mps 751 mmHg 93%
    06:00 +7°C° 0 mm 4 mps 752 mmHg 89%
    07:00 +8°C° 0 mm 4 mps 752 mmHg 84%
    08:00 +9°C° 0 mm 5 mps 753 mmHg 79%
    09:00 +10°C° 0 mm 5 mps 753 mmHg 75%
    10:00 +10°C° 0 mm 5 mps 753 mmHg 71%
    11:00 +12°C° 0 mm 5 mps 754 mmHg 67%
    12:00 +12°C° 0.1 mm 5 mps 754 mmHg 67%
    13:00 +13°C° 0.1 mm 5 mps 754 mmHg 66%
    14:00 +13°C° 0.1 mm 5 mps 755 mmHg 66%
    15:00 +13°C° 0.1 mm 5 mps 755 mmHg 67%
    16:00 +12°C° 0.1 mm 5 mps 755 mmHg 68%
    17:00 +12°C° 0.1 mm 5 mps 756 mmHg 68%
    18:00 +10°C° 0 mm 5 mps 756 mmHg 72%
    19:00 +10°C° 0 mm 4 mps 757 mmHg 77%
    20:00 +8°C° 0 mm 4 mps 757 mmHg 81%
    21:00 +7°C° 0 mm 4 mps 757 mmHg 83%
    22:00 +8°C° 0 mm 3 mps 757 mmHg 85%
    23:00 +7°C° 0 mm 3 mps 758 mmHg 87%

    24 August, Friday

    Time Temperature Precipitation Wind Pressure Humidity
    00:00 +7°C° 0 mm 3 mps 758 mmHg 87%
    01:00 +5°C° 0 mm 3 mps 758 mmHg 87%
    02:00 +5°C° 0 mm 3 mps 758 mmHg 88%
    03:00 +5°C° 0 mm 3 mps 758 mmHg 88%
    04:00 +4°C° 0 mm 3 mps 758 mmHg 87%
    05:00 +5°C° 0 mm 2 mps 758 mmHg 87%
    06:00 +6°C° 0 mm 2 mps 758 mmHg 82%
    07:00 +8°C° 0 mm 2 mps 758 mmHg 76%
    08:00 +9°C° 0 mm 2 mps 758 mmHg 70%
    09:00 +10°C° 0 mm 2 mps 758 mmHg 65%
    10:00 +12°C° 0 mm 2 mps 758 mmHg 60%
    11:00 +11°C° 0 mm 3 mps 758 mmHg 55%
    12:00 +12°C° 0 mm 3 mps 758 mmHg 54%
    13:00 +12°C° 0 mm 3 mps 758 mmHg 52%
    14:00 +13°C° 0 mm 4 mps 758 mmHg 51%
    15:00 +13°C° 0 mm 4 mps 758 mmHg 52%
    16:00 +13°C° 0 mm 4 mps 757 mmHg 54%
    17:00 +12°C° 0 mm 5 mps 757 mmHg 56%
    18:00 +10°C° 0 mm 5 mps 757 mmHg 61%
    19:00 +9°C° 0 mm 5 mps 758 mmHg 67%
    20:00 +8°C° 0 mm 5 mps 758 mmHg 72%
    21:00 +7°C° 0 mm 5 mps 758 mmHg 74%
    22:00 +6°C° 0 mm 4 mps 758 mmHg 75%
    23:00 +6°C° 0 mm 4 mps 758 mmHg 77%

    25 August, Saturday

    Time Temperature Precipitation Wind Pressure Humidity
    00:00 +5°C° 0 mm 4 mps 758 mmHg 77%
    01:00 +5°C° 0 mm 4 mps 758 mmHg 78%
    02:00 +4°C° 0 mm 4 mps 758 mmHg 78%
    03:00 +4°C° 0 mm 4 mps 759 mmHg 78%
    04:00 +4°C° 0 mm 4 mps 759 mmHg 78%
    05:00 +4°C° 0 mm 4 mps 759 mmHg 78%
    06:00 +5°C° 0 mm 3 mps 759 mmHg 74%
    07:00 +7°C° 0 mm 3 mps 760 mmHg 69%
    08:00 +9°C° 0 mm 3 mps 760 mmHg 64%
    09:00 +9°C° 0 mm 2 mps 760 mmHg 64%
    10:00 +10°C° 0 mm 2 mps 760 mmHg 63%
    11:00 +12°C° 0 mm 1 mps 760 mmHg 63%
    12:00 +12°C° 0 mm 2 mps 760 mmHg 63%
    13:00 +13°C° 0 mm 2 mps 760 mmHg 64%
    14:00 +13°C° 0 mm 2 mps 760 mmHg 64%
    15:00 +13°C° 0 mm 2 mps 760 mmHg 65%
    16:00 +13°C° 0 mm 2 mps 760 mmHg 67%
    17:00 +12°C° 0 mm 2 mps 760 mmHg 69%
    18:00 +10°C° 0 mm 2 mps 760 mmHg 75%
    19:00 +10°C° 0 mm 1 mps 760 mmHg 81%
    20:00 +9°C° 0 mm 1 mps 760 mmHg 87%
    21:00 +9°C° 0 mm 1 mps 760 mmHg 89%
    22:00 +9°C° 0 mm 1 mps 759 mmHg 91%
    23:00 +9°C° 0 mm 1 mps 759 mmHg 93%
    Show more